Time,TemperatureF,DewpointF,PressureIn,WindDirection,WindDirectionDegrees,WindSpeedMPH,WindSpeedGustMPH,Humidity,HourlyPrecipIn,Conditions,Clouds,dailyrainin,SoftwareType,DateUTC
2013-02-12 00:00:00,57.7,56.0,29.97,NE,54,3.0,4.0,94,0.01,,---,0.00,VWS V14.01,2013-02-12 06:00:00,
2013-02-12 00:05:00,57.7,56.0,29.97,ENE,68,2.0,10.0,94,0.01,,---,0.00,VWS V14.01,2013-02-12 06:05:00,
2013-02-12 00:10:00,57.7,56.0,29.97,ENE,74,8.0,10.0,94,0.01,,---,0.00,VWS V14.01,2013-02-12 06:10:00,
2013-02-12 00:15:00,57.6,55.9,29.96,ENE,61,10.0,10.0,94,0.05,,---,0.04,VWS V14.01,2013-02-12 06:15:00,
2013-02-12 00:20:00,57.6,55.9,29.96,East,87,7.0,10.0,94,0.06,,---,0.05,VWS V14.01,2013-02-12 06:20:00,
2013-02-12 00:25:00,57.5,56.1,29.97,NE,55,2.0,10.0,95,0.08,,---,0.07,VWS V14.01,2013-02-12 06:25:00,
2013-02-12 00:30:00,57.5,56.1,29.97,NE,49,3.0,4.0,95,0.08,,---,0.07,VWS V14.01,2013-02-12 06:30:00,
2013-02-12 00:35:00,57.5,56.1,29.97,ENE,64,2.0,6.0,95,0.08,,---,0.07,VWS V14.01,2013-02-12 06:35:00,
2013-02-12 00:40:00,57.5,56.1,29.96,ESE,105,3.0,7.0,95,0.08,,---,0.07,VWS V14.01,2013-02-12 06:40:00,
2013-02-12 00:45:00,57.5,56.1,29.96,ENE,69,0.0,7.0,95,0.08,,---,0.07,VWS V14.01,2013-02-12 06:45:00,
2013-02-12 00:50:00,57.5,56.1,29.96,East,84,4.0,7.0,95,0.08,,---,0.07,VWS V14.01,2013-02-12 06:50:00,
2013-02-12 00:55:00,57.5,56.1,29.96,East,92,2.0,7.0,95,0.08,,---,0.07,VWS V14.01,2013-02-12 06:55:00,
2013-02-12 01:00:00,57.5,56.1,29.96,NE,46,4.0,6.0,95,0.07,,---,0.07,VWS V14.01,2013-02-12 07:00:00,
2013-02-12 01:05:00,57.5,56.1,29.96,ENE,59,3.0,9.0,95,0.07,,---,0.07,VWS V14.01,2013-02-12 07:05:00,
2013-02-12 01:10:00,57.5,56.1,29.97,NE,50,5.0,9.0,95,0.07,,---,0.07,VWS V14.01,2013-02-12 07:10:00,
2013-02-12 01:15:00,57.5,56.1,29.97,ENE,58,6.0,9.0,95,0.07,,---,0.07,VWS V14.01,2013-02-12 07:15:00,
2013-02-12 01:20:00,57.5,56.1,29.97,NE,55,2.0,9.0,95,0.07,,---,0.07,VWS V14.01,2013-02-12 07:20:00,
2013-02-12 01:25:00,57.5,56.1,29.97,East,82,4.0,9.0,95,0.07,,---,0.07,VWS V14.01,2013-02-12 07:25:00,
2013-02-12 01:30:00,57.5,56.1,29.97,East,90,4.0,5.0,95,0.00,,---,0.07,VWS V14.01,2013-02-12 07:30:00,
2013-02-12 01:35:00,57.6,56.2,29.97,NE,44,5.0,8.0,95,0.00,,---,0.07,VWS V14.01,2013-02-12 07:35:00,
2013-02-12 01:40:00,57.6,56.2,29.97,NE,56,5.0,10.0,95,0.00,,---,0.07,VWS V14.01,2013-02-12 07:40:00,
2013-02-12 01:45:00,57.6,56.2,29.97,ENE,63,3.0,10.0,95,0.00,,---,0.07,VWS V14.01,2013-02-12 07:45:00,
2013-02-12 01:50:00,57.6,56.2,29.96,East,96,0.0,10.0,95,0.00,,---,0.07,VWS V14.01,2013-02-12 07:50:00,
2013-02-12 01:55:00,57.6,56.2,29.97,NE,53,2.0,10.0,95,0.00,,---,0.07,VWS V14.01,2013-02-12 07:55:00,
2013-02-12 02:00:00,57.7,56.3,29.97,NE,44,4.0,6.0,95,0.00,,---,0.07,VWS V14.01,2013-02-12 08:00:00,
2013-02-12 02:05:00,57.7,56.3,29.97,NE,47,6.0,9.0,95,0.00,,---,0.07,VWS V14.01,2013-02-12 08:05:00,
2013-02-12 02:10:00,57.7,56.3,29.96,ENE,76,5.0,9.0,95,0.00,,---,0.07,VWS V14.01,2013-02-12 08:10:00,
2013-02-12 02:15:00,57.7,56.3,29.96,ENE,57,5.0,9.0,95,0.00,,---,0.07,VWS V14.01,2013-02-12 08:15:00,
2013-02-12 02:20:00,57.7,56.3,29.96,ENE,59,3.0,9.0,95,0.00,,---,0.07,VWS V14.01,2013-02-12 08:20:00,
2013-02-12 02:25:00,57.7,56.3,29.96,NE,55,4.0,9.0,95,0.00,,---,0.07,VWS V14.01,2013-02-12 08:25:00,
2013-02-12 02:30:00,57.7,56.3,29.96,NE,40,3.0,10.0,95,0.00,,---,0.07,VWS V14.01,2013-02-12 08:30:00,
2013-02-12 02:35:00,57.7,56.3,29.96,NE,44,4.0,10.0,95,0.00,,---,0.07,VWS V14.01,2013-02-12 08:35:00,
2013-02-12 02:40:00,57.7,56.3,29.96,NE,53,5.0,10.0,95,0.00,,---,0.07,VWS V14.01,2013-02-12 08:40:00,
2013-02-12 02:45:00,57.7,56.3,29.95,NNE,32,5.0,10.0,95,0.00,,---,0.07,VWS V14.01,2013-02-12 08:45:00,
2013-02-12 02:50:00,57.7,56.3,29.95,NE,42,7.0,10.0,95,0.00,,---,0.07,VWS V14.01,2013-02-12 08:50:00,
2013-02-12 02:55:00,57.6,56.2,29.95,NE,43,6.0,10.0,95,0.00,,---,0.07,VWS V14.01,2013-02-12 08:55:00,
2013-02-12 03:00:00,57.6,56.2,29.96,NE,53,7.0,8.0,95,0.00,,---,0.07,VWS V14.01,2013-02-12 09:00:00,
2013-02-12 03:05:00,57.6,56.2,29.96,NE,38,6.0,9.0,95,0.00,,---,0.07,VWS V14.01,2013-02-12 09:05:00,
2013-02-12 03:10:00,57.5,56.1,29.96,NE,34,9.0,11.0,95,0.00,,---,0.07,VWS V14.01,2013-02-12 09:10:00,
2013-02-12 03:15:00,57.5,56.1,29.96,NE,39,5.0,11.0,95,0.00,,---,0.07,VWS V14.01,2013-02-12 09:15:00,
2013-02-12 03:20:00,57.5,56.1,29.96,NE,54,7.0,11.0,95,0.00,,---,0.07,VWS V14.01,2013-02-12 09:20:00,
2013-02-12 03:25:00,57.4,56.0,29.95,NE,40,10.0,11.0,95,0.00,,---,0.07,VWS V14.01,2013-02-12 09:25:00,
2013-02-12 03:30:00,57.4,56.0,29.95,NE,47,5.0,8.0,95,0.00,,---,0.07,VWS V14.01,2013-02-12 09:30:00,
2013-02-12 03:35:00,57.4,56.0,29.96,ENE,61,4.0,11.0,95,0.00,,---,0.07,VWS V14.01,2013-02-12 09:35:00,
2013-02-12 03:40:00,57.4,56.0,29.96,NE,56,5.0,11.0,95,0.00,,---,0.07,VWS V14.01,2013-02-12 09:40:00,
2013-02-12 03:45:00,57.3,55.9,29.95,NE,40,9.0,12.0,95,0.00,,---,0.07,VWS V14.01,2013-02-12 09:45:00,
2013-02-12 03:50:00,57.3,55.9,29.94,NE,55,11.0,14.0,95,0.00,,---,0.07,VWS V14.01,2013-02-12 09:50:00,
2013-02-12 03:55:00,57.1,55.7,29.94,ENE,62,7.0,14.0,95,0.00,,---,0.07,VWS V14.01,2013-02-12 09:55:00,
2013-02-12 04:00:00,57.1,55.7,29.94,ENE,61,11.0,11.0,95,0.00,,---,0.07,VWS V14.01,2013-02-12 10:00:00,
2013-02-12 04:05:00,57.0,55.6,29.94,NE,40,8.0,12.0,95,0.00,,---,0.07,VWS V14.01,2013-02-12 10:05:00,
2013-02-12 04:10:00,57.0,55.6,29.94,ENE,61,5.0,13.0,95,0.00,,---,0.07,VWS V14.01,2013-02-12 10:10:00,
2013-02-12 04:15:00,56.9,55.5,29.94,NE,36,6.0,13.0,95,0.00,,---,0.07,VWS V14.01,2013-02-12 10:15:00,
2013-02-12 04:20:00,56.9,55.5,29.93,NE,54,6.0,13.0,95,0.00,,---,0.07,VWS V14.01,2013-02-12 10:20:00,
2013-02-12 04:25:00,56.9,55.5,29.93,ENE,74,7.0,13.0,95,0.00,,---,0.07,VWS V14.01,2013-02-12 10:25:00,
2013-02-12 04:30:00,56.9,55.5,29.93,ENE,78,4.0,5.0,95,0.00,,---,0.07,VWS V14.01,2013-02-12 10:30:00,
2013-02-12 04:35:00,56.9,55.5,29.93,ENE,75,3.0,7.0,95,0.00,,---,0.07,VWS V14.01,2013-02-12 10:35:00,
2013-02-12 04:40:00,56.9,55.5,29.93,East,80,3.0,7.0,95,0.00,,---,0.07,VWS V14.01,2013-02-12 10:40:00,
2013-02-12 04:45:00,56.9,55.5,29.93,East,93,1.0,10.0,95,0.00,,---,0.07,VWS V14.01,2013-02-12 10:45:00,
2013-02-12 04:50:00,56.9,55.5,29.93,ENE,72,2.0,12.0,95,0.00,,---,0.07,VWS V14.01,2013-02-12 10:50:00,
2013-02-12 04:55:00,56.9,55.5,29.93,East,88,7.0,12.0,95,0.00,,---,0.07,VWS V14.01,2013-02-12 10:55:00,
2013-02-12 05:00:00,56.9,55.5,29.92,East,83,5.0,9.0,95,0.00,,---,0.07,VWS V14.01,2013-02-12 11:00:00,
2013-02-12 05:05:00,56.9,55.5,29.92,ENE,57,3.0,12.0,95,0.00,,---,0.07,VWS V14.01,2013-02-12 11:05:00,
2013-02-12 05:10:00,56.9,55.5,29.92,ENE,63,10.0,12.0,95,0.00,,---,0.07,VWS V14.01,2013-02-12 11:10:00,
2013-02-12 05:15:00,56.9,55.5,29.92,NE,44,9.0,13.0,95,0.00,,---,0.07,VWS V14.01,2013-02-12 11:15:00,
2013-02-12 05:20:00,56.9,55.5,29.92,NE,56,2.0,13.0,95,0.00,,---,0.07,VWS V14.01,2013-02-12 11:20:00,
2013-02-12 05:25:00,56.9,55.5,29.92,ENE,78,3.0,13.0,95,0.00,,---,0.07,VWS V14.01,2013-02-12 11:25:00,
2013-02-12 05:30:00,56.9,55.5,29.92,East,98,6.0,9.0,95,0.00,,---,0.07,VWS V14.01,2013-02-12 11:30:00,
2013-02-12 05:35:00,56.9,55.5,29.92,NE,49,7.0,12.0,95,0.00,,---,0.07,VWS V14.01,2013-02-12 11:35:00,
2013-02-12 05:40:00,56.9,55.5,29.92,East,82,3.0,12.0,95,0.00,,---,0.07,VWS V14.01,2013-02-12 11:40:00,
2013-02-12 05:45:00,57.0,55.6,29.92,ENE,67,5.0,12.0,95,0.00,,---,0.07,VWS V14.01,2013-02-12 11:45:00,
2013-02-12 05:50:00,57.0,55.6,29.92,East,101,6.0,12.0,95,0.00,,---,0.07,VWS V14.01,2013-02-12 11:50:00,
2013-02-12 05:55:00,57.0,55.6,29.92,East,82,3.0,12.0,95,0.00,,---,0.07,VWS V14.01,2013-02-12 11:55:00,
2013-02-12 06:00:00,57.1,55.7,29.92,ENE,69,2.0,4.0,95,0.00,,---,0.07,VWS V14.01,2013-02-12 12:00:00,
2013-02-12 06:05:00,57.1,55.7,29.91,NE,53,3.0,6.0,95,0.00,,---,0.07,VWS V14.01,2013-02-12 12:05:00,
2013-02-12 06:10:00,57.1,55.7,29.91,ENE,67,2.0,9.0,95,0.00,,---,0.07,VWS V14.01,2013-02-12 12:10:00,
2013-02-12 06:15:00,57.1,55.7,29.91,ESE,103,4.0,11.0,95,0.00,,---,0.07,VWS V14.01,2013-02-12 12:15:00,
2013-02-12 06:20:00,57.0,55.6,29.91,NE,52,4.0,12.0,95,0.00,,---,0.07,VWS V14.01,2013-02-12 12:20:00,
2013-02-12 06:25:00,57.0,55.6,29.91,ENE,67,5.0,12.0,95,0.00,,---,0.07,VWS V14.01,2013-02-12 12:25:00,
2013-02-12 06:30:00,57.0,55.6,29.91,NE,46,7.0,11.0,95,0.00,,---,0.07,VWS V14.01,2013-02-12 12:30:00,
2013-02-12 06:35:00,57.0,55.6,29.91,ENE,77,7.0,14.0,95,0.00,,---,0.07,VWS V14.01,2013-02-12 12:35:00,
2013-02-12 06:40:00,56.9,55.5,29.91,ENE,59,6.0,14.0,95,0.00,,---,0.07,VWS V14.01,2013-02-12 12:40:00,
2013-02-12 06:45:00,56.9,55.5,29.91,ENE,65,13.0,14.0,95,0.00,,---,0.07,VWS V14.01,2013-02-12 12:45:00,
2013-02-12 06:50:00,56.8,55.4,29.91,ENE,74,6.0,15.0,95,0.00,,---,0.07,VWS V14.01,2013-02-12 12:50:00,
2013-02-12 06:55:00,56.8,55.4,29.91,ESE,103,5.0,15.0,95,0.00,,---,0.07,VWS V14.01,2013-02-12 12:55:00,
2013-02-12 07:00:00,56.8,55.4,29.91,ENE,67,7.0,12.0,95,0.00,,---,0.07,VWS V14.01,2013-02-12 13:00:00,
2013-02-12 07:05:00,56.8,55.4,29.91,East,94,4.0,14.0,95,0.00,,---,0.07,VWS V14.01,2013-02-12 13:05:00,
2013-02-12 07:10:00,56.7,55.3,29.91,East,86,5.0,14.0,95,0.00,,---,0.07,VWS V14.01,2013-02-12 13:10:00,
2013-02-12 07:15:00,56.7,55.3,29.91,East,98,3.0,14.0,95,0.00,,---,0.07,VWS V14.01,2013-02-12 13:15:00,
2013-02-12 07:20:00,56.7,55.3,29.91,ESE,109,2.0,14.0,95,0.00,,---,0.07,VWS V14.01,2013-02-12 13:20:00,
2013-02-12 07:25:00,56.7,55.3,29.90,East,81,2.0,14.0,95,0.00,,---,0.07,VWS V14.01,2013-02-12 13:25:00,
2013-02-12 07:30:00,56.8,55.4,29.90,East,86,5.0,9.0,95,0.00,,---,0.07,VWS V14.01,2013-02-12 13:30:00,
2013-02-12 07:35:00,56.9,55.5,29.90,East,94,3.0,11.0,95,0.00,,---,0.07,VWS V14.01,2013-02-12 13:35:00,
2013-02-12 07:40:00,56.9,55.5,29.90,East,99,3.0,14.0,95,0.00,,---,0.07,VWS V14.01,2013-02-12 13:40:00,
2013-02-12 07:45:00,56.9,55.5,29.90,ESE,112,0.0,14.0,95,0.00,,---,0.07,VWS V14.01,2013-02-12 13:45:00,
2013-02-12 07:50:00,56.9,55.5,29.90,East,87,5.0,14.0,95,0.00,,---,0.07,VWS V14.01,2013-02-12 13:50:00,
2013-02-12 07:55:00,56.9,55.5,29.90,East,95,2.0,14.0,95,0.00,,---,0.07,VWS V14.01,2013-02-12 13:55:00,
2013-02-12 08:00:00,56.9,55.5,29.90,East,82,4.0,7.0,95,0.00,,---,0.07,VWS V14.01,2013-02-12 14:00:00,
2013-02-12 08:05:00,57.0,55.6,29.89,East,79,7.0,11.0,95,0.00,,---,0.07,VWS V14.01,2013-02-12 14:05:00,
2013-02-12 08:10:00,57.0,55.6,29.89,ENE,70,10.0,11.0,95,0.00,,---,0.07,VWS V14.01,2013-02-12 14:10:00,
2013-02-12 08:15:00,57.1,55.7,29.89,ESE,119,10.0,12.0,95,0.00,,---,0.07,VWS V14.01,2013-02-12 14:15:00,
2013-02-12 08:20:00,57.2,55.8,29.90,East,90,7.0,12.0,95,0.00,,---,0.07,VWS V14.01,2013-02-12 14:20:00,
2013-02-12 08:25:00,57.3,55.9,29.90,East,84,2.0,13.0,95,0.00,,---,0.07,VWS V14.01,2013-02-12 14:25:00,
2013-02-12 08:30:00,57.4,56.0,29.90,East,87,3.0,10.0,95,0.00,,---,0.07,VWS V14.01,2013-02-12 14:30:00,
2013-02-12 08:35:00,57.4,56.0,29.90,ESE,107,7.0,15.0,95,0.00,,---,0.07,VWS V14.01,2013-02-12 14:35:00,
2013-02-12 08:40:00,57.5,56.1,29.90,East,90,5.0,15.0,95,0.00,,---,0.07,VWS V14.01,2013-02-12 14:40:00,
2013-02-12 08:45:00,57.6,56.2,29.90,East,99,7.0,15.0,95,0.00,,---,0.07,VWS V14.01,2013-02-12 14:45:00,
2013-02-12 08:50:00,57.7,56.3,29.90,SE,132,5.0,15.0,95,0.00,,---,0.07,VWS V14.01,2013-02-12 14:50:00,
2013-02-12 08:55:00,57.7,56.3,29.90,ENE,69,7.0,15.0,95,0.00,,---,0.07,VWS V14.01,2013-02-12 14:55:00,
2013-02-12 09:00:00,57.7,56.3,29.90,East,98,3.0,10.0,95,0.00,,---,0.07,VWS V14.01,2013-02-12 15:00:00,
2013-02-12 09:05:00,57.9,56.5,29.90,ESE,104,1.0,12.0,95,0.00,,---,0.07,VWS V14.01,2013-02-12 15:05:00,
2013-02-12 09:10:00,58.0,56.6,29.90,East,98,4.0,12.0,95,0.00,,---,0.07,VWS V14.01,2013-02-12 15:10:00,
2013-02-12 09:15:00,58.1,56.7,29.90,SE,130,4.0,13.0,95,0.00,,---,0.07,VWS V14.01,2013-02-12 15:15:00,
2013-02-12 09:20:00,58.2,56.8,29.90,East,86,2.0,13.0,95,0.00,,---,0.07,VWS V14.01,2013-02-12 15:20:00,
2013-02-12 09:25:00,58.4,57.0,29.90,ENE,66,2.0,13.0,95,0.00,,---,0.07,VWS V14.01,2013-02-12 15:25:00,
2013-02-12 09:30:00,58.4,57.0,29.90,East,96,8.0,8.0,95,0.00,,---,0.07,VWS V14.01,2013-02-12 15:30:00,
2013-02-12 09:35:00,58.4,57.0,29.90,ENE,65,5.0,13.0,95,0.00,,---,0.07,VWS V14.01,2013-02-12 15:35:00,
2013-02-12 09:40:00,58.5,57.1,29.90,ENE,74,5.0,13.0,95,0.00,,---,0.07,VWS V14.01,2013-02-12 15:40:00,
2013-02-12 09:45:00,58.5,57.1,29.90,ESE,103,3.0,13.0,95,0.01,,---,0.08,VWS V14.01,2013-02-12 15:45:00,
2013-02-12 09:50:00,58.5,57.1,29.91,ESE,121,0.0,13.0,95,0.01,,---,0.08,VWS V14.01,2013-02-12 15:50:00,
2013-02-12 09:55:00,58.6,57.2,29.91,ENE,67,2.0,13.0,95,0.01,,---,0.08,VWS V14.01,2013-02-12 15:55:00,
2013-02-12 10:00:00,58.6,57.2,29.91,East,80,0.0,3.0,95,0.01,,---,0.08,VWS V14.01,2013-02-12 16:00:00,
2013-02-12 10:05:00,58.6,57.2,29.91,East,94,0.0,5.0,95,0.01,,---,0.08,VWS V14.01,2013-02-12 16:05:00,
2013-02-12 10:10:00,58.7,57.3,29.90,SE,137,0.0,5.0,95,0.01,,---,0.08,VWS V14.01,2013-02-12 16:10:00,
2013-02-12 10:15:00,58.8,57.4,29.90,East,100,7.0,8.0,95,0.01,,---,0.08,VWS V14.01,2013-02-12 16:15:00,
2013-02-12 10:20:00,59.0,57.6,29.89,East,96,5.0,8.0,95,0.01,,---,0.08,VWS V14.01,2013-02-12 16:20:00,
2013-02-12 10:25:00,59.1,57.7,29.89,East,87,6.0,11.0,95,0.01,,---,0.08,VWS V14.01,2013-02-12 16:25:00,
2013-02-12 10:30:00,59.3,57.9,29.88,ESE,111,0.0,6.0,95,0.02,,---,0.09,VWS V14.01,2013-02-12 16:30:00,
2013-02-12 10:35:00,59.4,58.0,29.88,East,86,4.0,9.0,95,0.02,,---,0.09,VWS V14.01,2013-02-12 16:35:00,
2013-02-12 10:40:00,59.3,57.9,29.88,ENE,73,2.0,9.0,95,0.02,,---,0.09,VWS V14.01,2013-02-12 16:40:00,
2013-02-12 10:45:00,59.3,57.9,29.87,ESE,111,4.0,9.0,95,0.02,,---,0.09,VWS V14.01,2013-02-12 16:45:00,
2013-02-12 10:50:00,59.3,57.9,29.87,ESE,109,2.0,9.0,95,0.02,,---,0.09,VWS V14.01,2013-02-12 16:50:00,
2013-02-12 10:55:00,59.4,58.0,29.87,SSE,148,0.0,9.0,95,0.02,,---,0.09,VWS V14.01,2013-02-12 16:55:00,
2013-02-12 11:00:00,59.3,57.9,29.86,ENE,73,4.0,8.0,95,0.01,,---,0.09,VWS V14.01,2013-02-12 17:00:00,
2013-02-12 11:05:00,59.3,57.9,29.86,East,92,5.0,9.0,95,0.01,,---,0.09,VWS V14.01,2013-02-12 17:05:00,
2013-02-12 11:10:00,59.4,58.0,29.86,East,87,4.0,10.0,95,0.01,,---,0.09,VWS V14.01,2013-02-12 17:10:00,
2013-02-12 11:15:00,59.5,58.1,29.86,ENE,71,0.0,10.0,95,0.01,,---,0.09,VWS V14.01,2013-02-12 17:15:00,
2013-02-12 11:20:00,59.6,58.2,29.86,East,95,4.0,10.0,95,0.01,,---,0.09,VWS V14.01,2013-02-12 17:20:00,
2013-02-12 11:25:00,59.7,58.3,29.85,ESE,111,5.0,10.0,95,0.01,,---,0.09,VWS V14.01,2013-02-12 17:25:00,
2013-02-12 11:30:00,59.7,58.6,29.85,ESE,112,1.0,3.0,96,0.00,,---,0.09,VWS V14.01,2013-02-12 17:30:00,
2013-02-12 11:35:00,59.9,58.8,29.85,South,180,0.0,4.0,96,0.00,,---,0.09,VWS V14.01,2013-02-12 17:35:00,
2013-02-12 11:40:00,60.1,59.0,29.85,ENE,57,4.0,5.0,96,0.00,,---,0.09,VWS V14.01,2013-02-12 17:40:00,
2013-02-12 11:45:00,60.2,59.1,29.85,East,98,2.0,6.0,96,0.00,,---,0.09,VWS V14.01,2013-02-12 17:45:00,
2013-02-12 11:50:00,60.3,59.2,29.84,East,100,1.0,6.0,96,0.00,,---,0.09,VWS V14.01,2013-02-12 17:50:00,
2013-02-12 11:55:00,60.5,59.4,29.83,ESE,111,2.0,6.0,96,0.00,,---,0.09,VWS V14.01,2013-02-12 17:55:00,
2013-02-12 12:00:00,60.6,59.5,29.83,NNE,17,0.0,1.0,96,0.00,,---,0.09,VWS V14.01,2013-02-12 18:00:00,
2013-02-12 12:05:00,60.7,59.6,29.83,East,97,0.0,6.0,96,0.00,,---,0.09,VWS V14.01,2013-02-12 18:05:00,
2013-02-12 12:10:00,60.7,59.6,29.83,SE,142,0.0,6.0,96,0.00,,---,0.09,VWS V14.01,2013-02-12 18:10:00,
2013-02-12 12:15:00,60.8,59.7,29.82,ESE,121,2.0,6.0,96,0.01,,---,0.10,VWS V14.01,2013-02-12 18:15:00,
2013-02-12 12:20:00,60.9,59.8,29.82,ESE,121,0.0,6.0,96,0.02,,---,0.11,VWS V14.01,2013-02-12 18:20:00,
2013-02-12 12:25:00,61.1,60.0,29.82,South,173,2.0,6.0,96,0.04,,---,0.13,VWS V14.01,2013-02-12 18:25:00,
2013-02-12 12:30:00,61.2,60.0,29.81,East,94,0.0,2.0,96,0.04,,---,0.13,VWS V14.01,2013-02-12 18:30:00,
2013-02-12 12:35:00,61.3,60.2,29.81,SE,146,0.0,2.0,96,0.04,,---,0.13,VWS V14.01,2013-02-12 18:35:00,
2013-02-12 12:40:00,61.5,60.3,29.80,ESE,119,3.0,7.0,96,0.04,,---,0.13,VWS V14.01,2013-02-12 18:40:00,
2013-02-12 12:45:00,61.7,60.5,29.80,SSE,162,1.0,8.0,96,0.04,,---,0.13,VWS V14.01,2013-02-12 18:45:00,
2013-02-12 12:50:00,61.8,60.7,29.79,ESE,123,1.0,8.0,96,0.04,,---,0.13,VWS V14.01,2013-02-12 18:50:00,
2013-02-12 12:55:00,61.8,60.7,29.78,ESE,121,2.0,8.0,96,0.04,,---,0.13,VWS V14.01,2013-02-12 18:55:00,
2013-02-12 13:00:00,61.9,60.8,29.77,SE,125,5.0,5.0,96,0.04,,---,0.13,VWS V14.01,2013-02-12 19:00:00,
2013-02-12 13:05:00,62.0,60.8,29.76,ESE,104,2.0,5.0,96,0.04,,---,0.13,VWS V14.01,2013-02-12 19:05:00,
2013-02-12 13:10:00,61.9,60.8,29.75,East,98,2.0,9.0,96,0.04,,---,0.13,VWS V14.01,2013-02-12 19:10:00,
2013-02-12 13:15:00,62.0,60.8,29.74,SSE,150,0.0,9.0,96,0.06,,---,0.15,VWS V14.01,2013-02-12 19:15:00,
2013-02-12 13:20:00,62.2,61.0,29.75,South,183,10.0,11.0,96,0.09,,---,0.18,VWS V14.01,2013-02-12 19:20:00,
2013-02-12 13:25:00,62.4,61.2,29.73,East,92,3.0,11.0,96,0.38,,---,0.47,VWS V14.01,2013-02-12 19:25:00,
2013-02-12 13:30:00,62.5,61.3,29.73,East,94,0.0,0.0,96,0.59,,---,0.72,VWS V14.01,2013-02-12 19:30:00,
2013-02-12 13:35:00,62.7,61.5,29.72,NNW,333,4.0,11.0,96,0.67,,---,0.80,VWS V14.01,2013-02-12 19:35:00,
2013-02-12 13:40:00,62.9,61.8,29.73,NE,40,3.0,11.0,96,0.68,,---,0.81,VWS V14.01,2013-02-12 19:40:00,
2013-02-12 13:45:00,63.2,62.0,29.75,SW,230,3.0,15.0,96,0.70,,---,0.83,VWS V14.01,2013-02-12 19:45:00,
2013-02-12 13:50:00,63.5,62.3,29.74,SE,138,9.0,15.0,96,0.71,,---,0.84,VWS V14.01,2013-02-12 19:50:00,
2013-02-12 13:55:00,63.6,62.4,29.73,South,173,4.0,15.0,96,0.72,,---,0.85,VWS V14.01,2013-02-12 19:55:00,
2013-02-12 14:00:00,63.6,62.4,29.73,SSW,194,5.0,7.0,96,0.76,,---,0.89,VWS V14.01,2013-02-12 20:00:00,
2013-02-12 14:05:00,63.9,63.0,29.73,West,262,5.0,11.0,97,0.76,,---,0.89,VWS V14.01,2013-02-12 20:05:00,
2013-02-12 14:10:00,64.5,63.6,29.73,SSW,212,7.0,11.0,97,0.76,,---,0.89,VWS V14.01,2013-02-12 20:10:00,
2013-02-12 14:15:00,65.4,64.5,29.72,SSW,209,10.0,18.0,97,0.76,,---,0.89,VWS V14.01,2013-02-12 20:15:00,
2013-02-12 14:20:00,66.1,65.2,29.72,South,180,10.0,18.0,97,0.76,,---,0.89,VWS V14.01,2013-02-12 20:20:00,
2013-02-12 14:25:00,66.2,65.3,29.71,SSW,198,5.0,18.0,97,0.77,,---,0.90,VWS V14.01,2013-02-12 20:25:00,
2013-02-12 14:30:00,66.1,65.2,29.71,SW,215,4.0,11.0,97,0.19,,---,0.90,VWS V14.01,2013-02-12 20:30:00,
2013-02-12 14:35:00,66.0,65.1,29.71,SSW,200,5.0,12.0,97,0.19,,---,0.90,VWS V14.01,2013-02-12 20:35:00,
2013-02-12 14:40:00,66.3,65.4,29.70,South,185,23.0,24.0,97,0.19,,---,0.90,VWS V14.01,2013-02-12 20:40:00,
2013-02-12 14:45:00,66.9,66.0,29.71,SSE,163,6.0,26.0,97,0.19,,---,0.90,VWS V14.01,2013-02-12 20:45:00,
2013-02-12 14:50:00,67.2,66.3,29.71,South,173,1.0,26.0,97,0.19,,---,0.90,VWS V14.01,2013-02-12 20:50:00,
2013-02-12 14:55:00,67.3,66.4,29.70,South,179,4.0,26.0,97,0.19,,---,0.90,VWS V14.01,2013-02-12 20:55:00,
2013-02-12 15:00:00,67.4,66.5,29.71,SSW,207,10.0,10.0,97,0.02,,---,0.90,VWS V14.01,2013-02-12 21:00:00,
2013-02-12 15:05:00,67.4,66.5,29.70,South,189,11.0,13.0,97,0.02,,---,0.90,VWS V14.01,2013-02-12 21:05:00,
2013-02-12 15:10:00,67.5,66.6,29.71,SSW,205,4.0,16.0,97,0.02,,---,0.90,VWS V14.01,2013-02-12 21:10:00,
2013-02-12 15:15:00,67.6,66.7,29.70,WSW,251,10.0,20.0,97,0.02,,---,0.90,VWS V14.01,2013-02-12 21:15:00,
2013-02-12 15:20:00,67.8,66.9,29.70,SSW,202,10.0,20.0,97,0.02,,---,0.90,VWS V14.01,2013-02-12 21:20:00,
2013-02-12 15:25:00,68.1,67.2,29.70,SW,219,6.0,20.0,97,0.02,,---,0.90,VWS V14.01,2013-02-12 21:25:00,
2013-02-12 15:30:00,68.3,67.4,29.70,West,271,5.0,6.0,97,0.00,,---,0.90,VWS V14.01,2013-02-12 21:30:00,
2013-02-12 15:35:00,68.2,67.3,29.70,West,269,8.0,14.0,97,0.00,,---,0.90,VWS V14.01,2013-02-12 21:35:00,
2013-02-12 15:40:00,68.1,67.2,29.70,SSW,209,11.0,14.0,97,0.00,,---,0.90,VWS V14.01,2013-02-12 21:40:00,
2013-02-12 15:45:00,68.1,67.2,29.71,SSW,205,8.0,16.0,97,0.00,,---,0.90,VWS V14.01,2013-02-12 21:45:00,
2013-02-12 15:50:00,68.2,67.3,29.70,SSW,211,9.0,19.0,97,0.00,,---,0.90,VWS V14.01,2013-02-12 21:50:00,
2013-02-12 15:55:00,68.2,67.3,29.70,SW,227,0.0,19.0,97,0.00,,---,0.90,VWS V14.01,2013-02-12 21:55:00,
2013-02-12 16:00:00,68.4,67.5,29.70,South,183,10.0,13.0,97,0.00,,---,0.90,VWS V14.01,2013-02-12 22:00:00,
2013-02-12 16:05:00,68.6,67.7,29.70,SW,220,9.0,21.0,97,0.00,,---,0.90,VWS V14.01,2013-02-12 22:05:00,
2013-02-12 16:10:00,68.7,67.8,29.70,South,177,3.0,21.0,97,0.00,,---,0.90,VWS V14.01,2013-02-12 22:10:00,
2013-02-12 16:15:00,68.9,68.0,29.70,WSW,254,12.0,21.0,97,0.00,,---,0.90,VWS V14.01,2013-02-12 22:15:00,
2013-02-12 16:20:00,69.0,68.1,29.70,SW,222,14.0,23.0,97,0.00,,---,0.90,VWS V14.01,2013-02-12 22:20:00,
2013-02-12 16:25:00,69.0,68.1,29.70,NW,314,2.0,23.0,97,0.00,,---,0.90,VWS V14.01,2013-02-12 22:25:00,
2013-02-12 16:30:00,69.0,68.1,29.70,West,273,3.0,12.0,97,0.00,,---,0.90,VWS V14.01,2013-02-12 22:30:00,
2013-02-12 16:35:00,69.1,68.2,29.70,SW,232,3.0,18.0,97,0.00,,---,0.90,VWS V14.01,2013-02-12 22:35:00,
2013-02-12 16:40:00,69.2,68.3,29.70,SSW,207,9.0,18.0,97,0.00,,---,0.90,VWS V14.01,2013-02-12 22:40:00,
2013-02-12 16:45:00,69.2,68.3,29.70,SSW,208,12.0,18.0,97,0.00,,---,0.90,VWS V14.01,2013-02-12 22:45:00,
2013-02-12 16:50:00,69.2,68.3,29.69,SW,226,3.0,18.0,97,0.00,,---,0.90,VWS V14.01,2013-02-12 22:50:00,
2013-02-12 16:55:00,69.2,68.3,29.70,SW,225,5.0,18.0,97,0.00,,---,0.90,VWS V14.01,2013-02-12 22:55:00,
2013-02-12 17:00:00,69.1,68.2,29.70,SW,230,4.0,14.0,97,0.00,,---,0.90,VWS V14.01,2013-02-12 23:00:00,
2013-02-12 17:05:00,69.0,68.1,29.70,WSW,249,7.0,16.0,97,0.00,,---,0.90,VWS V14.01,2013-02-12 23:05:00,
2013-02-12 17:10:00,68.9,67.7,29.69,SSW,201,5.0,16.0,96,0.00,,---,0.90,VWS V14.01,2013-02-12 23:10:00,
2013-02-12 17:15:00,68.9,67.7,29.70,WSW,244,9.0,16.0,96,0.00,,---,0.90,VWS V14.01,2013-02-12 23:15:00,
2013-02-12 17:20:00,68.9,67.7,29.70,SW,228,8.0,16.0,96,0.00,,---,0.90,VWS V14.01,2013-02-12 23:20:00,
2013-02-12 17:25:00,68.9,67.7,29.70,WSW,253,4.0,16.0,96,0.00,,---,0.90,VWS V14.01,2013-02-12 23:25:00,
2013-02-12 17:30:00,68.8,67.6,29.70,WSW,237,4.0,4.0,96,0.00,,---,0.90,VWS V14.01,2013-02-12 23:30:00,
2013-02-12 17:35:00,68.8,67.6,29.70,WSW,248,10.0,16.0,96,0.00,,---,0.90,VWS V14.01,2013-02-12 23:35:00,
2013-02-12 17:40:00,68.7,67.5,29.70,SW,223,5.0,16.0,96,0.00,,---,0.90,VWS V14.01,2013-02-12 23:40:00,
2013-02-12 17:45:00,68.6,67.4,29.70,WSW,242,4.0,16.0,96,0.00,,---,0.90,VWS V14.01,2013-02-12 23:45:00,
2013-02-12 17:50:00,68.6,67.4,29.70,SW,223,6.0,16.0,96,0.00,,---,0.90,VWS V14.01,2013-02-12 23:50:00,
2013-02-12 17:55:00,68.6,67.4,29.70,SW,223,11.0,19.0,96,0.00,,---,0.90,VWS V14.01,2013-02-12 23:55:00,
2013-02-12 18:00:00,68.7,67.5,29.70,WSW,257,2.0,13.0,96,0.00,,---,0.90,VWS V14.01,2013-02-13 00:00:00,
2013-02-12 18:05:00,68.6,67.4,29.70,SSW,200,11.0,16.0,96,0.00,,---,0.90,VWS V14.01,2013-02-13 00:05:00,
2013-02-12 18:10:00,68.7,67.5,29.70,SSW,207,10.0,16.0,96,0.00,,---,0.90,VWS V14.01,2013-02-13 00:10:00,
2013-02-12 18:15:00,68.7,67.5,29.70,West,279,7.0,16.0,96,0.00,,---,0.90,VWS V14.01,2013-02-13 00:15:00,
2013-02-12 18:20:00,68.7,67.5,29.70,SW,225,5.0,18.0,96,0.00,,---,0.90,VWS V14.01,2013-02-13 00:20:00,
2013-02-12 18:25:00,68.8,67.6,29.70,SSW,213,5.0,18.0,96,0.00,,---,0.90,VWS V14.01,2013-02-13 00:25:00,
2013-02-12 18:30:00,68.8,67.6,29.70,SW,222,3.0,10.0,96,0.00,,---,0.90,VWS V14.01,2013-02-13 00:30:00,
2013-02-12 18:35:00,68.8,67.6,29.70,SSW,203,9.0,14.0,96,0.00,,---,0.90,VWS V14.01,2013-02-13 00:35:00,
2013-02-12 18:40:00,68.8,67.6,29.70,South,172,10.0,14.0,96,0.00,,---,0.90,VWS V14.01,2013-02-13 00:40:00,
2013-02-12 18:45:00,68.8,67.6,29.70,WSW,238,4.0,14.0,96,0.00,,---,0.90,VWS V14.01,2013-02-13 00:45:00,
2013-02-12 18:50:00,68.8,67.6,29.70,SW,236,11.0,15.0,96,0.00,,---,0.90,VWS V14.01,2013-02-13 00:50:00,
2013-02-12 18:55:00,68.7,67.5,29.70,SW,234,12.0,15.0,96,0.00,,---,0.90,VWS V14.01,2013-02-13 00:55:00,
2013-02-12 19:00:00,68.8,67.6,29.70,SW,216,8.0,10.0,96,0.00,,---,0.90,VWS V14.01,2013-02-13 01:00:00,
2013-02-12 19:05:00,68.8,67.6,29.70,SW,234,7.0,19.0,96,0.00,,---,0.90,VWS V14.01,2013-02-13 01:05:00,
2013-02-12 19:10:00,68.9,67.7,29.70,WSW,249,18.0,19.0,96,0.00,,---,0.90,VWS V14.01,2013-02-13 01:10:00,
2013-02-12 19:15:00,69.0,67.8,29.70,SW,222,11.0,19.0,96,0.00,,---,0.90,VWS V14.01,2013-02-13 01:15:00,
2013-02-12 19:20:00,69.0,67.8,29.70,SW,232,7.0,19.0,96,0.00,,---,0.90,VWS V14.01,2013-02-13 01:20:00,
2013-02-12 19:25:00,69.1,67.9,29.70,SW,218,4.0,19.0,96,0.00,,---,0.90,VWS V14.01,2013-02-13 01:25:00,
2013-02-12 19:30:00,69.2,68.0,29.70,WSW,244,10.0,11.0,96,0.00,,---,0.90,VWS V14.01,2013-02-13 01:30:00,
2013-02-12 19:35:00,69.2,68.0,29.71,West,265,11.0,11.0,96,0.00,,---,0.90,VWS V14.01,2013-02-13 01:35:00,
2013-02-12 19:40:00,69.2,68.0,29.71,SSW,207,8.0,12.0,96,0.00,,---,0.90,VWS V14.01,2013-02-13 01:40:00,
2013-02-12 19:45:00,69.2,68.0,29.71,WSW,249,4.0,13.0,96,0.00,,---,0.90,VWS V14.01,2013-02-13 01:45:00,
2013-02-12 19:50:00,69.3,68.1,29.71,SW,221,3.0,15.0,96,0.00,,---,0.90,VWS V14.01,2013-02-13 01:50:00,
2013-02-12 19:55:00,69.5,68.3,29.71,West,274,5.0,18.0,96,0.00,,---,0.90,VWS V14.01,2013-02-13 01:55:00,
2013-02-12 20:00:00,69.6,68.4,29.72,SW,229,7.0,13.0,96,0.00,,---,0.90,VWS V14.01,2013-02-13 02:00:00,
2013-02-12 20:05:00,69.7,68.5,29.72,SW,227,5.0,14.0,96,0.00,,---,0.90,VWS V14.01,2013-02-13 02:05:00,
2013-02-12 20:10:00,69.8,68.6,29.72,West,261,5.0,14.0,96,0.00,,---,0.90,VWS V14.01,2013-02-13 02:10:00,
2013-02-12 20:15:00,69.8,68.6,29.72,SW,223,9.0,20.0,96,0.00,,---,0.90,VWS V14.01,2013-02-13 02:15:00,
2013-02-12 20:20:00,69.7,68.5,29.72,WSW,254,3.0,20.0,96,0.00,,---,0.90,VWS V14.01,2013-02-13 02:20:00,
2013-02-12 20:25:00,69.7,68.5,29.72,WSW,238,4.0,20.0,96,0.00,,---,0.90,VWS V14.01,2013-02-13 02:25:00,
2013-02-12 20:30:00,69.7,68.5,29.72,WSW,252,8.0,11.0,96,0.00,,---,0.90,VWS V14.01,2013-02-13 02:30:00,
2013-02-12 20:35:00,69.6,68.4,29.71,SW,232,11.0,16.0,96,0.00,,---,0.90,VWS V14.01,2013-02-13 02:35:00,
2013-02-12 20:40:00,69.7,68.5,29.71,WSW,248,4.0,16.0,96,0.00,,---,0.90,VWS V14.01,2013-02-13 02:40:00,
2013-02-12 20:45:00,69.8,68.6,29.72,WSW,250,9.0,19.0,96,0.00,,---,0.90,VWS V14.01,2013-02-13 02:45:00,
2013-02-12 20:50:00,69.9,68.7,29.71,WSW,256,5.0,19.0,96,0.00,,---,0.90,VWS V14.01,2013-02-13 02:50:00,
2013-02-12 20:55:00,69.9,68.4,29.71,WSW,246,5.0,19.0,95,0.00,,---,0.90,VWS V14.01,2013-02-13 02:55:00,
2013-02-12 21:00:00,69.9,68.4,29.71,SW,233,2.0,6.0,95,0.00,,---,0.90,VWS V14.01,2013-02-13 03:00:00,
2013-02-12 21:05:00,69.8,68.3,29.71,SW,236,6.0,9.0,95,0.00,,---,0.90,VWS V14.01,2013-02-13 03:05:00,
2013-02-12 21:10:00,69.6,68.1,29.71,West,263,2.0,11.0,95,0.00,,---,0.90,VWS V14.01,2013-02-13 03:10:00,
2013-02-12 21:15:00,69.5,68.0,29.71,West,275,3.0,11.0,95,0.00,,---,0.90,VWS V14.01,2013-02-13 03:15:00,
2013-02-12 21:20:00,69.5,68.0,29.72,SW,220,8.0,13.0,95,0.00,,---,0.90,VWS V14.01,2013-02-13 03:20:00,
2013-02-12 21:25:00,69.4,67.9,29.72,West,264,2.0,13.0,95,0.00,,---,0.90,VWS V14.01,2013-02-13 03:25:00,
2013-02-12 21:30:00,69.4,67.9,29.72,SW,224,6.0,9.0,95,0.00,,---,0.90,VWS V14.01,2013-02-13 03:30:00,
2013-02-12 21:35:00,69.4,67.9,29.71,West,261,8.0,12.0,95,0.00,,---,0.90,VWS V14.01,2013-02-13 03:35:00,
2013-02-12 21:40:00,69.3,67.8,29.72,WSW,237,5.0,12.0,95,0.00,,---,0.90,VWS V14.01,2013-02-13 03:40:00,
2013-02-12 21:45:00,69.3,67.8,29.72,SW,231,4.0,12.0,95,0.00,,---,0.90,VWS V14.01,2013-02-13 03:45:00,
2013-02-12 21:50:00,69.2,67.7,29.71,SW,216,4.0,12.0,95,0.00,,---,0.90,VWS V14.01,2013-02-13 03:50:00,
2013-02-12 21:55:00,69.2,67.7,29.71,WSW,250,3.0,12.0,95,0.00,,---,0.90,VWS V14.01,2013-02-13 03:55:00,
2013-02-12 22:00:00,69.2,67.7,29.72,WSW,246,5.0,6.0,95,0.00,,---,0.90,VWS V14.01,2013-02-13 04:00:00,
2013-02-12 22:05:00,69.2,68.0,29.71,SSW,197,7.0,10.0,96,0.00,,---,0.90,VWS V14.01,2013-02-13 04:05:00,
2013-02-12 22:10:00,69.1,67.9,29.71,WSW,247,2.0,10.0,96,0.00,,---,0.90,VWS V14.01,2013-02-13 04:10:00,
2013-02-12 22:15:00,69.0,67.8,29.71,WSW,244,5.0,10.0,96,0.00,,---,0.90,VWS V14.01,2013-02-13 04:15:00,
2013-02-12 22:20:00,69.0,67.8,29.72,SW,229,4.0,10.0,96,0.00,,---,0.90,VWS V14.01,2013-02-13 04:20:00,
2013-02-12 22:25:00,68.9,67.7,29.72,WSW,250,5.0,10.0,96,0.00,,---,0.90,VWS V14.01,2013-02-13 04:25:00,
2013-02-12 22:30:00,68.9,67.7,29.72,West,267,2.0,4.0,96,0.00,,---,0.90,VWS V14.01,2013-02-13 04:30:00,
2013-02-12 22:35:00,68.9,67.7,29.72,WSW,246,0.0,10.0,96,0.00,,---,0.90,VWS V14.01,2013-02-13 04:35:00,
2013-02-12 22:40:00,69.0,67.8,29.73,WNW,296,1.0,16.0,96,0.00,,---,0.90,VWS V14.01,2013-02-13 04:40:00,
2013-02-12 22:45:00,69.1,67.9,29.73,WNW,288,4.0,16.0,96,0.00,,---,0.90,VWS V14.01,2013-02-13 04:45:00,
2013-02-12 22:50:00,69.2,68.0,29.72,SW,223,4.0,16.0,96,0.00,,---,0.90,VWS V14.01,2013-02-13 04:50:00,
2013-02-12 22:55:00,69.2,68.0,29.72,WSW,238,4.0,16.0,96,0.00,,---,0.90,VWS V14.01,2013-02-13 04:55:00,
2013-02-12 23:00:00,69.1,67.9,29.73,SW,235,3.0,5.0,96,0.00,,---,0.90,VWS V14.01,2013-02-13 05:00:00,
2013-02-12 23:05:00,69.0,67.8,29.73,West,274,0.0,9.0,96,0.00,,---,0.90,VWS V14.01,2013-02-13 05:05:00,
2013-02-12 23:10:00,69.0,67.8,29.73,West,281,12.0,12.0,96,0.00,,---,0.90,VWS V14.01,2013-02-13 05:10:00,
2013-02-12 23:15:00,69.0,67.8,29.73,WSW,248,3.0,12.0,96,0.00,,---,0.90,VWS V14.01,2013-02-13 05:15:00,
2013-02-12 23:20:00,69.0,67.8,29.73,WNW,292,6.0,14.0,96,0.00,,---,0.90,VWS V14.01,2013-02-13 05:20:00,
2013-02-12 23:25:00,69.1,67.9,29.73,West,273,2.0,16.0,96,0.00,,---,0.90,VWS V14.01,2013-02-13 05:25:00,
2013-02-12 23:30:00,69.1,67.9,29.74,WNW,298,7.0,7.0,96,0.00,,---,0.90,VWS V14.01,2013-02-13 05:30:00,
2013-02-12 23:35:00,69.1,67.9,29.72,West,261,4.0,12.0,96,0.00,,---,0.90,VWS V14.01,2013-02-13 05:35:00,
2013-02-12 23:40:00,69.0,67.5,29.72,WSW,241,4.0,14.0,95,0.00,,---,0.90,VWS V14.01,2013-02-13 05:40:00,
2013-02-12 23:45:00,69.0,67.5,29.72,West,260,9.0,14.0,95,0.00,,---,0.90,VWS V14.01,2013-02-13 05:45:00,
2013-02-12 23:50:00,68.9,67.4,29.72,West,260,3.0,14.0,95,0.00,,---,0.90,VWS V14.01,2013-02-13 05:50:00,
2013-02-12 23:55:00,68.9,67.4,29.72,WSW,254,2.0,14.0,95,0.00,,---,0.90,VWS V14.01,2013-02-13 05:55:00,